This is the latest recevied weather packets stored in our database for station/object KB1JLI. If no packets are shown the sender has not sent any weather packets the latest 10 day(s).
| Time | Temp. | Humidity | Pressure | Rain* | Wind** | Luminosity | Snow |
|---|---|---|---|---|---|---|---|
| 1777148264 | 10° C | 42% | 1017.4 hPa | 0 mm | - | 214 W/m² | - |
| 1777147960 | 10° C | 42% | 1017.4 hPa | 0 mm | - | 197 W/m² | - |
| 1777147656 | 10.56° C | 42% | 1017.5 hPa | 0 mm | - | 221 W/m² | - |
| 1777147351 | 10° C | 42% | 1017.4 hPa | 0 mm | - | 261 W/m² | - |
| 1777147047 | 10.56° C | 41% | 1017.8 hPa | 0 mm | - | 334 W/m² | - |
| 1777146744 | 10° C | 43% | 1017.6 hPa | 0 mm | - | 306 W/m² | - |
| 1777146439 | 10° C | 43% | 1017.6 hPa | 0 mm | - | 352 W/m² | - |
| 1777146136 | 10.56° C | 43% | 1017.6 hPa | 0 mm | - | 361 W/m² | - |
| 1777145830 | 10° C | 43% | 1017.4 hPa | 0 mm | - | 224 W/m² | - |
| 1777145527 | 10° C | 44% | 1017.3 hPa | 0 mm | - | 313 W/m² | - |
| 1777145222 | 10° C | 42% | 1017.5 hPa | 0 mm | - | 300 W/m² | - |
| 1777144918 | 10° C | 44% | 1017.8 hPa | 0 mm | - | 255 W/m² | - |
| 1777144612 | 10° C | 43% | 1017.6 hPa | 0 mm | - | 239 W/m² | - |
| 1777144307 | 10° C | 43% | 1017.7 hPa | 0 mm | - | 239 W/m² | - |
| 1777144004 | 10° C | 43% | 1017.7 hPa | 0 mm | - | 289 W/m² | - |
| 1777143700 | 10.56° C | 43% | 1017.6 hPa | 0 mm | - | 248 W/m² | - |
| 1777143397 | 10.56° C | 45% | 1017.8 hPa | 0 mm | - | 234 W/m² | - |
| 1777143092 | 11.11° C | 43% | 1017.7 hPa | 0 mm | - | 229 W/m² | - |
| 1777142788 | 11.11° C | 42% | 1017.6 hPa | 0 mm | - | 230 W/m² | - |
| 1777142486 | 11.11° C | 43% | 1017.5 hPa | 0 mm | - | 272 W/m² | - |
| 1777142184 | 11.11° C | 43% | 1017.5 hPa | 0 mm | - | 341 W/m² | - |
| 1777141881 | 11.11° C | 44% | 1017.5 hPa | 0 mm | - | 363 W/m² | - |
| 1777141578 | 11.67° C | 44% | 1017.8 hPa | 0 mm | - | 329 W/m² | - |
| 1777141277 | 11.67° C | 43% | 1017.6 hPa | 0 mm | - | 368 W/m² | - |
| 1777140974 | 11.11° C | 43% | 1017.6 hPa | 0 mm | - | 433 W/m² | - |
* Rain latest hour (hover to see other rain measurements)
** Current wind speed in m/s (hover to see current wind gust speed)